Racine, WI

10:49 PM CST on February 12, 2016 (GMT -0600)
Batten

Weather History for KRAC - December, 2012

Change the Weather History Date:

Sunday, December 2, 2012

  Actual Average Record
Temperature  
Mean Temperature 49 °F -  
Max Temperature 59 °F 37 °F 63 °F (1962)
Min Temperature 39 °F 23 °F -1 °F (1976)
Degree Days  
Heating Degree Days 16    
Moisture  
Dew Point 45 °F    
Average Humidity 88    
Maximum Humidity 100    
Minimum Humidity 62    
Precipitation  
Precipitation 0.00 in - - ()
Sea Level Pressure  
Sea Level Pressure 30.01 in    
Wind  
Wind Speed 8 mph (East)    
Max Wind Speed 14 mph    
Max Gust Speed 20 mph    
Visibility 4 miles    
Events      
Averages and records for this station are not official NWS values.
T = Trace of Precipitation, MM = Missing Value Source: NWS Daily Summary

Daily Weather History Graph

Daily Weather History Graph

Search for Another Location

Airport or City:

Trip Planner

Search our weather history database for the weather conditions in past years. The results will help you decide how hot, cold, wet, or windy it might be!

Date:

Astronomy

Dec. 02, 2012 Rise Set
Actual Time 7:03 AM CST 4:17 PM CST
Civil Twilight 6:31 AM CST 4:49 PM CST
Nautical Twilight 5:56 AM CST 5:24 PM CST
Astronomical Twilight 5:22 AM CST 5:59 PM CST
Moon 8:07 PM CST (12/2) 9:51 AM CST (12/2)
Length of Visible Light 10h 17m
Length of Day
9h 14m
Waning Gibbous, 85% of the Moon is Illuminated
Dec 2
Waning Gibbous
Dec 6
Last Quarter
Dec 13
New
Dec 19
First Quarter
Dec 28
Full

Hourly Weather History & Observations

Time (CST) Temp. Windchill Dew Point Humidity Pressure Visibility Wind Dir Wind Speed Gust Speed Precip Events Conditions
12:53 AM 57.0 °F - 51.1 °F 81% 29.86 in 9.0 mi SW 13.8 mph - N/A   Mostly Cloudy
1:53 AM 57.0 °F - 52.0 °F 83% 29.87 in 9.0 mi SW 12.7 mph 19.6 mph N/A   Overcast
2:53 AM 57.0 °F - 51.1 °F 81% 29.86 in 9.0 mi SW 10.4 mph - N/A   Overcast
3:53 AM 57.0 °F - 51.1 °F 81% 29.86 in 9.0 mi SW 10.4 mph - N/A   Overcast
4:53 AM 55.9 °F - 51.1 °F 84% 29.87 in 8.0 mi WSW 9.2 mph - N/A   Mostly Cloudy
5:53 AM 55.9 °F - 51.1 °F 84% 29.88 in 8.0 mi West 8.1 mph - N/A   Overcast
6:53 AM 55.0 °F - 51.1 °F 86% 29.91 in 7.0 mi WSW 5.8 mph - N/A   Overcast
7:53 AM 55.0 °F - 52.0 °F 89% 29.94 in 5.0 mi West 4.6 mph - N/A   Overcast
8:53 AM 55.9 °F - 52.0 °F 87% 29.95 in 5.0 mi West 3.5 mph - N/A   Overcast
9:53 AM 57.9 °F - 48.9 °F 72% 29.97 in 6.0 mi WNW 10.4 mph - N/A   Haze
10:33 AM 57.2 °F - 48.2 °F 72% 29.98 in 6.0 mi NNW 6.9 mph - N/A   Haze
10:53 AM 57.0 °F - 46.9 °F 69% 29.98 in 6.0 mi NW 5.8 mph - N/A   Haze
11:53 AM 59.0 °F - 46.0 °F 62% 29.97 in 7.0 mi WNW 6.9 mph - N/A   Clear
12:53 PM 55.9 °F - 46.0 °F 69% 29.98 in 5.0 mi ENE 8.1 mph - N/A   Haze
1:53 PM 52.0 °F - 44.1 °F 74% 29.99 in 5.0 mi NE 10.4 mph - N/A   Haze
2:53 PM 48.0 °F - 43.0 °F 83% 30.01 in 3.0 mi ENE 9.2 mph - N/A   Haze
3:53 PM 46.0 °F 43.9 °F 42.1 °F 86% 30.03 in 3.0 mi ENE 4.6 mph - N/A   Clear
4:53 PM 43.0 °F 41.3 °F 41.0 °F 93% 30.06 in 3.0 mi East 3.5 mph - N/A   Clear
5:32 PM 41.0 °F 39.0 °F 39.2 °F 93% 30.07 in 2.0 mi ENE 3.5 mph - N/A   Clear
5:53 PM 41.0 °F 38.0 °F 39.9 °F 96% 30.09 in 3.0 mi ENE 4.6 mph - N/A   Clear
6:53 PM 39.9 °F 36.7 °F 37.9 °F 93% 30.10 in 3.0 mi East 4.6 mph - N/A   Clear
7:30 PM 39.2 °F 37.0 °F 39.2 °F 100% 30.09 in 2.5 mi ENE 3.5 mph - N/A   Clear
7:53 PM 39.0 °F 36.8 °F 37.9 °F 96% 30.11 in 2.0 mi NE 3.5 mph - N/A   Clear
8:04 PM 39.2 °F 37.0 °F 39.2 °F 100% 30.09 in 1.5 mi East 3.5 mph - N/A   Clear
8:22 PM 39.2 °F 35.9 °F 39.2 °F 100% 30.09 in 2.5 mi ESE 4.6 mph - N/A   Clear
8:53 PM 39.0 °F 35.7 °F 37.9 °F 96% 30.09 in 2.0 mi SE 4.6 mph - N/A   Clear
9:18 PM 41.0 °F 37.1 °F 39.2 °F 93% 30.06 in 2.5 mi SE 5.8 mph - N/A   Clear
9:27 PM 42.8 °F 38.6 °F 41.0 °F 93% 30.06 in 3.0 mi SE 6.9 mph - N/A   Clear
9:53 PM 43.0 °F 41.3 °F 42.1 °F 97% 30.07 in 3.0 mi East 3.5 mph - N/A   Mostly Cloudy
9:59 PM 42.8 °F 41.1 °F 42.8 °F 100% 30.07 in 2.5 mi East 3.5 mph - N/A   Mostly Cloudy
10:29 PM 42.8 °F 40.1 °F 42.8 °F 100% 30.06 in 3.0 mi ESE 4.6 mph - N/A   Overcast
10:53 PM 43.0 °F 40.3 °F 42.1 °F 97% 30.08 in 3.0 mi ESE 4.6 mph - N/A   Overcast
11:00 PM 44.6 °F 42.2 °F 42.8 °F 93% 30.07 in 3.0 mi East 4.6 mph - N/A   Overcast
11:53 PM 45.0 °F 42.6 °F 44.1 °F 97% 30.08 in 3.0 mi East 4.6 mph - N/A   Overcast